Regional Weather Roundup
Issued by NWS Portland, ME

Current Version | Previous Version | Text Only | Print | Product List | Glossary Off
Versions: 1 2 3 4 5 6 7 8 9 10 11 12 13 14 15 16 17 18 19 20 21 22 23 24 25 26 27 28 29 30 31 32 33 34 35 36 37 38 39 40 41 42 43 44 45 46 47 48 49 50

000
ASUS41 KGYX 022005
RWRGYX
WEATHER ROUNDUP FOR MAINE AND NEW HAMPSHIRE
NATIONAL WEATHER SERVICE GRAY ME
400 PM EDT THU JUL 02 2015

MEZ002-005-006-010-012-015-018-020-021-024-026-027-029-022100-
MAINE

CITY           SKY/WX    TMP DP  RH WIND       PRES   REMARKS
PORTLAND       MOSUNNY   77  53  43 W12G20    29.84S
SANFORD        SUNNY     77  48  36 SW8G20    29.86S
BAR HARBOR     SUNNY     72  63  73 S13       29.81R
WISCASSET      MOSUNNY   77  50  38 W9G17     29.84R
ROCKLAND       SUNNY     73  55  53 S10       29.80S
FRYEBURG       SUNNY     76  45  33 MISG      29.85S
LEWISTONAUBURN SUNNY     75  46  35 W9G18     29.84S
AUGUSTA        SUNNY     74  50  42 W7        29.83R
WATERVILLE       N/A    N/A N/A N/A MISG        N/A
BANGOR         PTSUNNY   75  50  41 W13G20    29.81R
GREENVILLE       N/A     69  47  45 VRB3      29.80R
MILLINOCKET    MOSUNNY   74  49  41 W9G18     29.78R
HOULTON        PTSUNNY   69  51  52 SW14G20   29.74R
PRESQUE ISLE   PTSUNNY   66  48  52 W17G26    29.75R
FRENCHVILLE    CLOUDY    58  50  75 SW17G26   29.72R
CARIBOU        CLOUDY    65  50  58 W18G26    29.74R
$$

NHZ002-005-008-009-011-012-014-022100-
NEW HAMPSHIRE

CITY           SKY/WX    TMP DP  RH WIND       PRES   REMARKS
PORTSMOUTH     PTSUNNY   77  56  47 W9        29.84F
ROCHESTER      MOSUNNY   78  53  41 VRB7      29.85S
NASHUA         MOSUNNY   78  54  43 SW10      29.88S
MANCHESTER     PTSUNNY   79  53  40 W8        29.85S
CONCORD        MOSUNNY   77  53  43 W8        29.86S
LACONIA        MOSUNNY   75  46  35 W12G18    29.86R
PLYMOUTH       FAIR      74  55  49 W7        29.87S
BERLIN         SUNNY     71  43  36 VRB7G17   29.88R
WHITEFIELD     SUNNY     72  43  35 W10       29.89S
JAFFREY        MOSUNNY   73  51  46 VRB6      29.91S
KEENE          MOSUNNY   75  50  41 W7G16     29.89S
LEBANON        MOSUNNY   76  47  35 SW8       29.88S
MT WASHINGTON  PTSUNNY   41  36  81 W44         N/A
$$

VTZ005-007-008-022100-
VERMONT

CITY           SKY/WX    TMP DP  RH WIND       PRES   REMARKS
ST JOHNSBURY     N/A     73  43  33 MISG      29.87S
MONTPELIER     SUNNY     69  45  41 W6        29.94S
BURLINGTON     MOSUNNY   76  41  28 W8        29.88F
$$

MAZ007-012-024-CTZ003-RIZ002-NYZ038-NYZ072-022100-
SOUTHERN NEW ENGLAND AND NY

CITY           SKY/WX    TMP DP  RH WIND       PRES   REMARKS
BOSTON         CLOUDY    78  56  46 W10       29.86F
WORCESTER      CLOUDY    74  54  49 W9        29.91F
NANTUCKET      CLOUDY    72  60  66 S8        29.89S
PROVIDENCE     CLOUDY    78  59  51 NW8       29.87F
HARTFORD       CLOUDY    77  55  46 W8        29.88S
ALBANY         MOSUNNY   77  52  41 W9        29.90F
NEW YORK CITY  CLOUDY    76  57  51 S10       29.88S
$$

ANZ081-ANZ082-ANZ150-NHZ014-MEZ023>029-022100-
COASTAL MARINE OBSERVATIONS

STATION/POSITION TIME  TEMP    WIND        PRES    WAVE
                       AIR SEA DIR/SP/G            HT/PER
                 (UTC) (F)     (DEG/KT/KT) (MB)    (FT/S)
MOUNT DESERT ROC 2000   57     210/ 18/ 19 1010.3R
MATINICUS ROCK   1900   57     240/ 20/ 21 1010.1R
ISLE OF SHOALS   1900   72     240/  8/ 11 1010.5F
JEFFREYS LEDGE   1903      59                N/A     3/ 9
CASHES LEDGE BUO 1950   61                   N/A
GEORGES BANK BUO 1850   65 63  190/  2/  4 1013.4    7/ 8
$$

.............KEY..............
   WCI - WIND CHILL
   TC  - TEMPERATURE IN CELSIUS
   VSB - VISIBILITY IN MILES
   HX  - HEAT INDEX
   FAIR- INDICATES FEW OR NO CLOUDS BELOW 12,000 FT, WITH NO
         SIGNIFICANT WEATHER AND/OR OBSTRUCTIONS TO VISIBILITY.





USA.gov is the U.S. government's official web portal to all federal, state and local government web resources and services.